Time,TemperatureF,DewpointF,PressureIn,WindDirection,WindDirectionDegrees,WindSpeedMPH,WindSpeedGustMPH,Humidity,HourlyPrecipIn,Conditions,Clouds,dailyrainin,SolarRadiationWatts/m^2,SoftwareType,DateUTC
2013-02-25 00:01:00,40.0,37.0,30.16,East,80,1.0,3.0,91,-99.99,,,0.00,0.000000,,2013-02-25 08:01:00,
2013-02-25 00:11:00,40.0,37.0,30.16,East,80,1.0,3.0,91,-99.99,,,0.00,0.000000,,2013-02-25 08:11:00,
2013-02-25 00:41:00,39.0,38.0,30.12,ENE,71,3.0,9.0,94,-99.99,,,-99.99,0.000000,,2013-02-25 08:41:00,
2013-02-25 00:52:00,39.0,38.0,30.12,ENE,71,3.0,9.0,94,-99.99,,,-99.99,0.000000,,2013-02-25 08:52:00,
2013-02-25 01:01:00,39.0,38.0,30.12,ENE,71,3.0,9.0,94,-99.99,,,-99.99,0.000000,,2013-02-25 09:01:00,
2013-02-25 01:12:00,39.0,38.0,30.12,ENE,71,3.0,9.0,94,-99.99,,,-99.99,0.000000,,2013-02-25 09:12:00,
2013-02-25 01:41:00,39.0,38.0,30.08,ENE,65,3.0,7.0,96,-99.99,,,0.00,0.000000,,2013-02-25 09:41:00,
2013-02-25 01:52:00,39.0,38.0,30.08,ENE,65,3.0,7.0,96,-99.99,,,0.00,0.000000,,2013-02-25 09:52:00,
2013-02-25 02:01:00,39.0,38.0,30.08,ENE,65,3.0,7.0,96,-99.99,,,0.00,0.000000,,2013-02-25 10:01:00,
2013-02-25 02:11:00,39.0,38.0,30.08,ENE,65,3.0,7.0,96,-99.99,,,0.00,0.000000,,2013-02-25 10:11:00,
2013-02-25 02:41:00,39.0,39.0,30.06,ENE,72,3.0,6.0,96,-99.99,,,0.01,0.000000,,2013-02-25 10:41:00,
2013-02-25 02:52:00,39.0,39.0,30.06,ENE,72,3.0,6.0,96,-99.99,,,0.01,0.000000,,2013-02-25 10:52:00,
2013-02-25 03:01:00,39.0,39.0,30.06,ENE,72,3.0,6.0,96,-99.99,,,0.01,0.000000,,2013-02-25 11:01:00,
2013-02-25 03:11:00,39.0,39.0,30.06,ENE,72,3.0,6.0,96,-99.99,,,0.01,0.000000,,2013-02-25 11:11:00,
2013-02-25 03:42:00,41.0,40.0,30.06,WSW,249,3.0,10.0,97,-99.99,,,0.01,0.000000,,2013-02-25 11:42:00,
2013-02-25 03:52:00,41.0,40.0,30.06,WSW,249,3.0,10.0,97,-99.99,,,0.01,0.000000,,2013-02-25 11:52:00,
2013-02-25 04:01:00,41.0,40.0,30.06,WSW,249,3.0,10.0,97,-99.99,,,0.01,0.000000,,2013-02-25 12:01:00,
2013-02-25 04:11:00,41.0,40.0,30.06,WSW,249,3.0,10.0,97,-99.99,,,0.01,0.000000,,2013-02-25 12:11:00,
2013-02-25 04:42:00,45.0,40.0,30.10,WNW,285,10.0,17.0,85,-99.99,,,0.01,0.000000,,2013-02-25 12:42:00,
2013-02-25 04:55:00,45.0,40.0,30.10,WNW,285,10.0,17.0,85,-99.99,,,0.01,0.000000,,2013-02-25 12:55:00,
2013-02-25 05:02:00,45.0,40.0,30.10,WNW,285,10.0,17.0,85,-99.99,,,0.01,0.000000,,2013-02-25 13:02:00,
2013-02-25 05:12:00,45.0,40.0,30.10,WNW,285,10.0,17.0,85,-99.99,,,0.01,0.000000,,2013-02-25 13:12:00,
2013-02-25 05:42:00,44.0,40.0,30.13,West,266,11.0,24.0,86,-99.99,,,0.01,0.000000,,2013-02-25 13:42:00,
2013-02-25 05:52:00,44.0,40.0,30.13,West,266,11.0,24.0,86,-99.99,,,0.01,0.000000,,2013-02-25 13:52:00,
2013-02-25 06:14:00,44.0,40.0,30.13,West,266,11.0,24.0,86,-99.99,,,0.01,0.000000,,2013-02-25 14:14:00,
2013-02-25 06:42:00,43.0,39.0,30.15,West,274,11.0,20.0,86,-99.99,,,0.01,0.000000,,2013-02-25 14:42:00,
2013-02-25 06:52:00,43.0,39.0,30.15,West,274,11.0,20.0,86,-99.99,,,0.01,0.000000,,2013-02-25 14:52:00,
2013-02-25 07:02:00,43.0,39.0,30.15,West,274,11.0,20.0,86,-99.99,,,0.01,0.000000,,2013-02-25 15:02:00,
2013-02-25 07:11:00,43.0,39.0,30.15,West,274,11.0,20.0,86,-99.99,,,0.01,0.000000,,2013-02-25 15:11:00,
2013-02-25 07:41:00,41.0,38.0,30.19,West,271,14.0,27.0,87,-99.99,,,0.02,1.510000,,2013-02-25 15:41:00,
2013-02-25 07:52:00,41.0,38.0,30.19,West,271,14.0,27.0,87,-99.99,,,0.02,1.510000,,2013-02-25 15:52:00,
2013-02-25 08:01:00,41.0,38.0,30.19,West,271,14.0,27.0,87,-99.99,,,0.02,1.510000,,2013-02-25 16:01:00,
2013-02-25 08:11:00,41.0,38.0,30.19,West,271,14.0,27.0,87,-99.99,,,0.02,1.510000,,2013-02-25 16:11:00,
2013-02-25 08:42:00,41.0,38.0,30.21,West,265,12.0,21.0,87,-99.99,,,0.02,21.040001,,2013-02-25 16:42:00,
2013-02-25 08:52:00,41.0,38.0,30.21,West,265,12.0,21.0,87,-99.99,,,0.02,21.040001,,2013-02-25 16:52:00,
2013-02-25 09:01:00,41.0,38.0,30.21,West,265,12.0,21.0,87,-99.99,,,0.02,21.040001,,2013-02-25 17:01:00,
2013-02-25 09:11:00,41.0,38.0,30.21,West,265,12.0,21.0,87,-99.99,,,0.02,21.040001,,2013-02-25 17:11:00,
2013-02-25 09:41:00,41.0,39.0,30.22,West,266,11.0,20.0,92,-99.99,,,0.02,66.480003,,2013-02-25 17:41:00,
2013-02-25 09:52:00,41.0,39.0,30.22,West,266,11.0,20.0,92,-99.99,,,0.02,66.480003,,2013-02-25 17:52:00,
2013-02-25 10:01:00,41.0,39.0,30.22,West,266,11.0,20.0,92,-99.99,,,0.02,66.480003,,2013-02-25 18:01:00,
2013-02-25 10:12:00,41.0,39.0,30.22,West,266,11.0,20.0,92,-99.99,,,0.02,66.480003,,2013-02-25 18:12:00,
2013-02-25 10:41:00,42.0,38.0,30.25,West,271,10.0,18.0,87,-99.99,,,0.02,51.950001,,2013-02-25 18:41:00,
2013-02-25 10:52:00,42.0,38.0,30.25,West,271,10.0,18.0,87,-99.99,,,0.02,51.950001,,2013-02-25 18:52:00,
2013-02-25 11:01:00,42.0,38.0,30.25,West,271,10.0,18.0,87,-99.99,,,0.02,51.950001,,2013-02-25 19:01:00,
2013-02-25 11:11:00,42.0,38.0,30.25,West,271,10.0,18.0,87,-99.99,,,0.02,51.950001,,2013-02-25 19:11:00,
2013-02-25 11:41:00,42.0,39.0,30.27,West,279,8.0,16.0,87,-99.99,,,0.02,145.279999,,2013-02-25 19:41:00,
2013-02-25 11:52:00,42.0,39.0,30.27,West,279,8.0,16.0,87,-99.99,,,0.02,145.279999,,2013-02-25 19:52:00,
2013-02-25 12:01:00,42.0,39.0,30.27,West,279,8.0,16.0,87,-99.99,,,0.02,145.279999,,2013-02-25 20:01:00,
2013-02-25 12:11:00,42.0,39.0,30.27,West,279,8.0,16.0,87,-99.99,,,0.02,145.279999,,2013-02-25 20:11:00,
2013-02-25 12:41:00,42.0,38.0,30.27,West,263,11.0,23.0,83,-99.99,,,0.02,137.720001,,2013-02-25 20:41:00,
2013-02-25 12:52:00,42.0,38.0,30.27,West,263,11.0,23.0,83,-99.99,,,0.02,137.720001,,2013-02-25 20:52:00,
2013-02-25 13:01:00,42.0,38.0,30.27,West,263,11.0,23.0,83,-99.99,,,0.02,137.720001,,2013-02-25 21:01:00,
2013-02-25 13:11:00,42.0,38.0,30.27,West,263,11.0,23.0,83,-99.99,,,0.02,137.720001,,2013-02-25 21:11:00,
2013-02-25 13:42:00,42.0,40.0,30.27,West,261,7.0,12.0,91,-99.99,,,0.03,65.430000,,2013-02-25 21:42:00,
2013-02-25 13:52:00,42.0,40.0,30.27,West,261,7.0,12.0,91,-99.99,,,0.03,65.430000,,2013-02-25 21:52:00,
2013-02-25 14:01:00,42.0,40.0,30.27,West,261,7.0,12.0,91,-99.99,,,0.03,65.430000,,2013-02-25 22:01:00,
2013-02-25 14:11:00,42.0,40.0,30.27,West,261,7.0,12.0,91,-99.99,,,0.03,65.430000,,2013-02-25 22:11:00,
2013-02-25 14:42:00,42.0,38.0,30.28,WSW,253,9.0,18.0,87,-99.99,,,0.03,71.480003,,2013-02-25 22:42:00,
2013-02-25 14:52:00,42.0,38.0,30.28,WSW,253,9.0,18.0,87,-99.99,,,0.03,71.480003,,2013-02-25 22:52:00,
2013-02-25 15:01:00,42.0,38.0,30.28,WSW,253,9.0,18.0,87,-99.99,,,0.03,71.480003,,2013-02-25 23:01:00,
2013-02-25 15:11:00,42.0,38.0,30.28,WSW,253,9.0,18.0,87,-99.99,,,0.03,71.480003,,2013-02-25 23:11:00,
2013-02-25 16:11:00,42.0,37.0,30.30,WSW,244,8.0,16.0,84,-99.99,,,0.03,45.209999,,2013-02-26 00:11:00,
2013-02-25 16:41:00,43.0,38.0,30.31,West,277,7.0,13.0,83,-99.99,,,0.03,92.739998,,2013-02-26 00:41:00,
2013-02-25 16:52:00,43.0,38.0,30.31,West,277,7.0,13.0,83,-99.99,,,0.03,92.739998,,2013-02-26 00:52:00,
2013-02-25 17:01:00,43.0,38.0,30.31,West,277,7.0,13.0,83,-99.99,,,0.03,92.739998,,2013-02-26 01:01:00,
2013-02-25 17:11:00,43.0,38.0,30.31,West,277,7.0,13.0,83,-99.99,,,0.03,92.739998,,2013-02-26 01:11:00,
2013-02-25 17:41:00,42.0,37.0,30.32,West,265,7.0,15.0,79,-99.99,,,0.03,17.780001,,2013-02-26 01:41:00,
2013-02-25 17:52:00,42.0,37.0,30.32,West,265,7.0,15.0,79,-99.99,,,0.03,17.780001,,2013-02-26 01:52:00,
2013-02-25 18:01:00,42.0,37.0,30.32,West,265,7.0,15.0,79,-99.99,,,0.03,17.780001,,2013-02-26 02:01:00,
2013-02-25 18:11:00,42.0,37.0,30.32,West,265,7.0,15.0,79,-99.99,,,0.03,17.780001,,2013-02-26 02:11:00,
2013-02-25 18:41:00,42.0,35.0,30.34,WSW,248,9.0,22.0,75,-99.99,,,0.03,0.120000,,2013-02-26 02:41:00,
2013-02-25 18:52:00,42.0,35.0,30.34,WSW,248,9.0,22.0,75,-99.99,,,0.03,0.120000,,2013-02-26 02:52:00,
2013-02-25 19:01:00,42.0,35.0,30.34,WSW,248,9.0,22.0,75,-99.99,,,0.03,0.120000,,2013-02-26 03:01:00,
2013-02-25 19:11:00,42.0,35.0,30.34,WSW,248,9.0,22.0,75,-99.99,,,0.03,0.120000,,2013-02-26 03:11:00,
2013-02-25 19:41:00,42.0,36.0,30.36,West,263,10.0,18.0,79,-99.99,,,0.03,0.000000,,2013-02-26 03:41:00,
2013-02-25 19:52:00,42.0,36.0,30.36,West,263,10.0,18.0,79,-99.99,,,0.03,0.000000,,2013-02-26 03:52:00,
2013-02-25 20:01:00,42.0,36.0,30.36,West,263,10.0,18.0,79,-99.99,,,0.03,0.000000,,2013-02-26 04:01:00,
2013-02-25 20:11:00,42.0,36.0,30.36,West,263,10.0,18.0,79,-99.99,,,0.03,0.000000,,2013-02-26 04:11:00,
2013-02-25 20:42:00,40.0,37.0,30.39,SW,228,6.0,14.0,89,-99.99,,,0.03,0.000000,,2013-02-26 04:42:00,
2013-02-25 20:52:00,40.0,37.0,30.39,SW,228,6.0,14.0,89,-99.99,,,0.03,0.000000,,2013-02-26 04:52:00,
2013-02-25 21:01:00,40.0,37.0,30.39,SW,228,6.0,14.0,89,-99.99,,,0.03,0.000000,,2013-02-26 05:01:00,
2013-02-25 21:11:00,40.0,37.0,30.39,SW,228,6.0,14.0,89,-99.99,,,0.03,0.000000,,2013-02-26 05:11:00,
2013-02-25 21:42:00,41.0,36.0,30.40,WNW,293,7.0,12.0,80,-99.99,,,0.03,0.000000,,2013-02-26 05:42:00,
2013-02-25 21:52:00,41.0,36.0,30.40,WNW,293,7.0,12.0,80,-99.99,,,0.03,0.000000,,2013-02-26 05:52:00,
2013-02-25 22:01:00,41.0,36.0,30.40,WNW,293,7.0,12.0,80,-99.99,,,0.03,0.000000,,2013-02-26 06:01:00,
2013-02-25 22:11:00,41.0,36.0,30.40,WNW,293,7.0,12.0,80,-99.99,,,0.03,0.000000,,2013-02-26 06:11:00,
2013-02-25 22:31:00,40.0,37.0,30.41,SW,232,5.0,10.0,87,-99.99,,,0.03,0.000000,,2013-02-26 06:31:00,
2013-02-25 22:41:00,40.0,37.0,30.41,SW,232,5.0,10.0,87,-99.99,,,0.03,0.000000,,2013-02-26 06:41:00,
2013-02-25 22:52:00,40.0,37.0,30.41,SW,232,5.0,10.0,87,-99.99,,,0.03,0.000000,,2013-02-26 06:52:00,
2013-02-25 23:01:00,40.0,37.0,30.41,SW,232,5.0,10.0,87,-99.99,,,0.03,0.000000,,2013-02-26 07:01:00,
2013-02-25 23:11:00,40.0,37.0,30.41,SW,232,5.0,10.0,87,-99.99,,,0.03,0.000000,,2013-02-26 07:11:00,
2013-02-25 23:41:00,40.0,36.0,30.42,WSW,243,6.0,10.0,84,-99.99,,,0.03,0.000000,,2013-02-26 07:41:00,
2013-02-25 23:52:00,40.0,36.0,30.42,WSW,243,6.0,10.0,84,-99.99,,,0.03,0.000000,,2013-02-26 07:52:00,